Radiation Dose at Monitoring Post of Fukushima Daini Nuclear Power Station
Date,Time,MP-1(microSv/h),MP-2(microSv/h),MP-3(microSv/h),MP-4(microSv/h),MP-5(microSv/h),MP-6(microSv/h),MP-7(microSv/h),Wind Direction,Wind Velocity(m/s),Rain
2017/07/05,00:00,0.341,0.213,0.351,0.328,0.315,0.173,0.103,south-southeast,2.2,Yes
2017/07/05,00:10,0.338,0.214,0.348,0.325,0.319,0.174,0.104,south-southeast,1.4,Yes
2017/07/05,00:20,0.342,0.214,0.351,0.328,0.316,0.173,0.105,-,CALM,No
2017/07/05,00:30,0.340,0.213,0.349,0.326,0.318,0.173,0.103,-,CALM,No
2017/07/05,00:40,0.341,0.213,0.350,0.326,0.320,0.174,0.103,east-southeast,0.7,No
2017/07/05,00:50,0.343,0.212,0.349,0.326,0.315,0.172,0.103,east,0.5,No
2017/07/05,01:00,0.339,0.213,0.349,0.323,0.319,0.173,0.104,southeast,1.4,No
2017/07/05,01:10,0.341,0.212,0.352,0.328,0.319,0.172,0.103,south-southwest,0.5,No
2017/07/05,01:20,0.341,0.214,0.348,0.326,0.316,0.172,0.103,-,CALM,No
2017/07/05,01:30,0.339,0.212,0.349,0.324,0.321,0.173,0.102,-,CALM,No
2017/07/05,01:40,0.342,0.213,0.351,0.327,0.318,0.172,0.103,northwest,1.4,No
2017/07/05,01:50,0.339,0.213,0.348,0.327,0.315,0.172,0.103,north-northwest,1.5,No
2017/07/05,02:00,0.340,0.212,0.353,0.325,0.319,0.172,0.102,north-northwest,1.3,No
2017/07/05,02:10,0.342,0.214,0.350,0.328,0.317,0.170,0.103,north,1.6,No
2017/07/05,02:20,0.338,0.212,0.348,0.323,0.316,0.172,0.103,north-northwest,2.0,No
2017/07/05,02:30,0.343,0.212,0.350,0.327,0.319,0.172,0.103,north-northwest,2.8,No
2017/07/05,02:40,0.341,0.214,0.348,0.327,0.316,0.171,0.104,north-northwest,3.0,No
2017/07/05,02:50,0.339,0.213,0.350,0.324,0.315,0.172,0.103,north,3.4,No
2017/07/05,03:00,0.342,0.212,0.351,0.328,0.319,0.173,0.102,north,3.7,No
2017/07/05,03:10,0.341,0.214,0.347,0.328,0.315,0.171,0.102,north,3.5,No
2017/07/05,03:20,0.341,0.213,0.352,0.326,0.321,0.172,0.102,north,3.4,No
2017/07/05,03:30,0.343,0.213,0.351,0.328,0.319,0.172,0.102,north,4.2,No
2017/07/05,03:40,0.340,0.214,0.348,0.326,0.314,0.172,0.104,north,4.2,No
2017/07/05,03:50,0.342,0.213,0.353,0.327,0.319,0.173,0.102,north,5.3,No
2017/07/05,04:00,0.343,0.213,0.351,0.326,0.317,0.172,0.103,north,5.1,No
2017/07/05,04:10,0.340,0.212,0.349,0.325,0.315,0.171,0.103,north,4.8,No
2017/07/05,04:20,0.343,0.214,0.352,0.329,0.320,0.173,0.103,north,5.6,No
2017/07/05,04:30,0.339,0.214,0.351,0.328,0.316,0.171,0.104,north,5.1,No
2017/07/05,04:40,0.341,0.214,0.350,0.324,0.316,0.173,0.103,north,5.3,No
2017/07/05,04:50,0.344,0.214,0.352,0.328,0.321,0.174,0.103,north,3.9,No
2017/07/05,05:00,0.340,0.213,0.349,0.327,0.316,0.171,0.104,north,4.1,No
2017/07/05,05:10,0.342,0.216,0.352,0.327,0.320,0.173,0.103,north,4.1,No
2017/07/05,05:20,0.343,0.214,0.352,0.330,0.319,0.172,0.103,north,4.7,No
2017/07/05,05:30,0.339,0.213,0.348,0.326,0.316,0.172,0.103,north,5.2,No
2017/07/05,05:40,0.344,0.215,0.354,0.328,0.320,0.174,0.104,north,6.8,No
2017/07/05,05:50,0.342,0.213,0.353,0.329,0.319,0.174,0.104,north,5.9,Yes
2017/07/05,06:00,0.340,0.215,0.348,0.326,0.316,0.172,0.104,north,5.3,No
2017/07/05,06:10,0.343,0.215,0.353,0.326,0.319,0.173,0.102,north,5.1,No
2017/07/05,06:20,0.342,0.213,0.351,0.328,0.319,0.174,0.103,north,4.5,No
2017/07/05,06:30,0.340,0.215,0.350,0.325,0.314,0.173,0.103,north,4.1,No
2017/07/05,06:40,0.343,0.215,0.353,0.326,0.320,0.173,0.103,north,4.3,No
2017/07/05,06:50,0.341,0.214,0.351,0.328,0.319,0.173,0.103,north,4.9,No
2017/07/05,07:00,0.341,0.215,0.351,0.327,0.316,0.172,0.103,north,4.4,No
2017/07/05,07:10,0.343,0.214,0.354,0.326,0.319,0.173,0.103,north,4.5,No
2017/07/05,07:20,0.340,0.213,0.351,0.330,0.320,0.174,0.103,north,3.4,No
2017/07/05,07:30,0.342,0.215,0.348,0.327,0.317,0.173,0.103,north,2.3,No
2017/07/05,07:40,0.342,0.215,0.352,0.326,0.316,0.171,0.103,north,4.0,No
2017/07/05,07:50,0.340,0.213,0.351,0.330,0.320,0.173,0.104,north,4.2,No
2017/07/05,08:00,0.342,0.214,0.348,0.328,0.318,0.174,0.103,north,4.2,No
2017/07/05,08:10,0.344,0.214,0.349,0.325,0.317,0.173,0.103,north,4.3,No
2017/07/05,08:20,0.341,0.214,0.354,0.324,0.315,0.173,0.102,north,4.4,No
2017/07/05,08:30,0.342,0.213,0.351,0.329,0.317,0.172,0.101,north,4.4,No
2017/07/05,08:40,0.345,0.215,0.348,0.329,0.322,0.173,0.102,north,4.6,No
2017/07/05,08:50,0.340,0.215,0.350,0.326,0.319,0.174,0.101,north,4.5,No
2017/07/05,09:00,0.340,0.214,0.354,0.326,0.318,0.173,0.103,north,5.0,No
2017/07/05,09:10,0.345,0.212,0.352,0.325,0.318,0.172,0.102,north-northeast,4.6,No
2017/07/05,09:20,0.343,0.212,0.349,0.324,0.316,0.172,0.102,northeast,3.9,No
2017/07/05,09:30,0.340,0.211,0.349,0.326,0.317,0.173,0.102,northeast,4.6,No
2017/07/05,09:40,0.341,0.215,0.347,0.325,0.317,0.173,0.104,north-northeast,4.0,No
2017/07/05,09:50,0.345,0.215,0.353,0.326,0.315,0.173,0.107,north-northeast,3.1,No
2017/07/05,10:00,0.342,0.213,0.354,0.325,0.317,0.174,0.106,north,2.9,No
2017/07/05,10:10,0.341,0.213,0.352,0.327,0.317,0.173,0.106,northeast,3.9,No
2017/07/05,10:20,0.339,0.213,0.350,0.328,0.318,0.174,0.104,northeast,3.9,No
2017/07/05,10:30,0.340,0.214,0.349,0.328,0.318,0.173,0.103,northeast,3.1,No
2017/07/05,10:40,0.340,0.213,0.350,0.329,0.317,0.173,0.104,north-northeast,3.3,No
2017/07/05,10:50,0.345,0.212,0.348,0.328,0.318,0.174,0.103,north-northeast,3.6,No
2017/07/05,11:00,0.347,0.213,0.349,0.327,0.318,0.175,0.103,northeast,3.7,No
2017/07/05,11:10,0.343,0.216,0.350,0.327,0.318,0.175,0.102,northeast,2.6,No
2017/07/05,11:20,0.342,0.217,0.355,0.326,0.318,0.174,0.103,east-northeast,3.6,No
2017/07/05,11:30,0.341,0.215,0.352,0.327,0.319,0.173,0.104,northeast,2.8,No
2017/07/05,11:40,0.340,0.214,0.354,0.327,0.319,0.173,0.104,northeast,4.4,No
2017/07/05,11:50,0.340,0.213,0.352,0.327,0.319,0.172,0.105,northeast,3.9,No
2017/07/05,12:00,0.347,0.214,0.351,0.329,0.319,0.174,0.105,northeast,4.2,No
2017/07/05,12:10,0.346,0.213,0.350,0.329,0.319,0.174,0.105,northeast,2.8,No
2017/07/05,12:20,0.345,0.214,0.352,0.329,0.320,0.174,0.106,east-northeast,2.5,No
2017/07/05,12:30,0.342,0.213,0.350,0.329,0.320,0.174,0.106,east-northeast,2.6,No
2017/07/05,12:40,0.342,0.213,0.350,0.328,0.320,0.174,0.106,east,1.1,No
2017/07/05,12:50,0.347,0.214,0.351,0.328,0.319,0.174,0.105,east-northeast,1.7,No
2017/07/05,13:00,0.348,0.213,0.349,0.328,0.321,0.174,0.105,east-northeast,0.9,No
2017/07/05,13:10,0.347,0.213,0.351,0.328,0.320,0.176,0.106,east-southeast,1.4,No
2017/07/05,13:20,0.343,0.213,0.352,0.328,0.320,0.175,0.104,southeast,1.2,No
2017/07/05,13:30,0.342,0.213,0.352,0.328,0.319,0.174,0.104,southeast,1.4,No
2017/07/05,13:40,0.342,0.215,0.350,0.329,0.320,0.175,0.103,southeast,1.1,No
2017/07/05,13:50,0.346,0.216,0.352,0.334,0.319,0.174,0.105,east,1.6,No
2017/07/05,14:00,0.347,0.216,0.356,0.333,0.319,0.174,0.107,east-southeast,1.9,No
2017/07/05,14:10,0.346,0.216,0.357,0.332,0.318,0.174,0.106,east-northeast,1.1,No
2017/07/05,14:20,0.342,0.215,0.355,0.330,0.320,0.175,0.105,northeast,1.7,No
2017/07/05,14:30,0.343,0.214,0.355,0.328,0.320,0.174,0.104,east,1.4,No
2017/07/05,14:40,0.348,0.213,0.353,0.328,0.320,0.173,0.106,east-southeast,1.0,No
2017/07/05,14:50,0.349,0.215,0.353,0.329,0.320,0.175,0.106,northeast,2.3,No
2017/07/05,15:00,0.345,0.215,0.353,0.332,0.320,0.176,0.105,northeast,2.5,No
2017/07/05,15:10,0.343,0.215,0.354,0.334,0.322,0.174,0.106,east-northeast,2.0,No
2017/07/05,15:20,0.345,0.215,0.354,0.331,0.322,0.175,0.106,east,1.9,No
2017/07/05,15:30,0.348,0.214,0.355,0.330,0.322,0.175,0.104,east,1.9,No
2017/07/05,15:40,0.348,0.215,0.355,0.331,0.323,0.175,0.105,southeast,1.3,No
2017/07/05,15:50,0.344,0.215,0.353,0.335,0.322,0.176,0.106,south-southeast,2.8,No
2017/07/05,16:00,0.343,0.214,0.353,0.332,0.321,0.174,0.107,south-southeast,3.2,No
2017/07/05,16:10,0.346,0.217,0.350,0.329,0.321,0.174,0.105,south,3.1,No
2017/07/05,16:20,0.348,0.217,0.353,0.334,0.322,0.174,0.104,south-southeast,2.5,No
2017/07/05,16:30,0.345,0.215,0.359,0.333,0.321,0.175,0.104,south,2.2,No
2017/07/05,16:40,0.343,0.216,0.357,0.330,0.322,0.176,0.103,south,2.5,No
2017/07/05,16:50,0.342,0.217,0.354,0.330,0.320,0.174,0.103,south,1.4,No
2017/07/05,17:00,0.349,0.216,0.357,0.335,0.321,0.175,0.104,south-southeast,3.3,No
2017/07/05,17:10,0.347,0.216,0.356,0.331,0.320,0.177,0.103,south-southeast,2.8,No
2017/07/05,17:20,0.343,0.218,0.353,0.329,0.321,0.175,0.103,south-southeast,2.4,No
2017/07/05,17:30,0.344,0.216,0.354,0.333,0.319,0.174,0.103,south-southeast,1.8,No
2017/07/05,17:40,0.349,0.215,0.357,0.333,0.320,0.175,0.102,south-southeast,2.0,No
2017/07/05,17:50,0.348,0.217,0.356,0.330,0.321,0.176,0.103,south-southeast,1.9,No
2017/07/05,18:00,0.344,0.218,0.353,0.333,0.325,0.175,0.104,south,2.4,No
2017/07/05,18:10,0.349,0.216,0.358,0.332,0.324,0.174,0.103,south,2.8,No
2017/07/05,18:20,0.348,0.216,0.355,0.331,0.320,0.175,0.103,south,3.4,No
2017/07/05,18:30,0.345,0.218,0.353,0.334,0.320,0.175,0.102,south,2.3,No
2017/07/05,18:40,0.346,0.216,0.357,0.334,0.324,0.174,0.103,-,CALM,No
2017/07/05,18:50,0.348,0.217,0.355,0.330,0.324,0.175,0.103,south,1.9,No
2017/07/05,19:00,0.345,0.217,0.353,0.334,0.322,0.176,0.102,south-southwest,1.4,No
2017/07/05,19:10,0.347,0.216,0.358,0.333,0.325,0.175,0.103,south,1.2,No
2017/07/05,19:20,0.349,0.217,0.356,0.331,0.322,0.175,0.103,south,4.4,No
2017/07/05,19:30,0.344,0.217,0.355,0.333,0.322,0.175,0.103,south,3.5,No
2017/07/05,19:40,0.348,0.217,0.358,0.333,0.324,0.174,0.103,south,5.0,No
2017/07/05,19:50,0.347,0.216,0.353,0.332,0.321,0.176,0.103,south,4.2,No
2017/07/05,20:00,0.346,0.216,0.357,0.334,0.323,0.175,0.104,south-southwest,5.3,No
2017/07/05,20:10,0.349,0.216,0.356,0.331,0.322,0.175,0.103,southwest,1.2,No
2017/07/05,20:20,0.345,0.215,0.356,0.335,0.320,0.175,0.103,south-southwest,3.3,No
2017/07/05,20:30,0.348,0.218,0.358,0.334,0.324,0.175,0.103,south-southwest,4.2,No
2017/07/05,20:40,0.347,0.217,0.355,0.331,0.322,0.176,0.103,south-southwest,4.9,No
2017/07/05,20:50,0.346,0.217,0.356,0.334,0.323,0.175,0.104,south-southwest,4.2,No
2017/07/05,21:00,0.350,0.216,0.356,0.331,0.324,0.175,0.103,southwest,3.4,No
2017/07/05,21:10,0.347,0.216,0.356,0.334,0.319,0.176,0.104,southwest,2.9,No
2017/07/05,21:20,0.346,0.217,0.359,0.334,0.324,0.175,0.104,southwest,2.4,No
2017/07/05,21:30,0.349,0.216,0.356,0.332,0.324,0.176,0.103,southwest,2.9,No
2017/07/05,21:40,0.346,0.217,0.357,0.335,0.321,0.174,0.104,southwest,2.2,No
2017/07/05,21:50,0.348,0.216,0.357,0.333,0.324,0.176,0.104,west-southwest,1.0,No
2017/07/05,22:00,0.350,0.217,0.354,0.333,0.322,0.176,0.103,west-southwest,1.4,No
2017/07/05,22:10,0.345,0.217,0.357,0.335,0.319,0.176,0.105,southwest,1.9,No
2017/07/05,22:20,0.349,0.217,0.357,0.331,0.325,0.176,0.103,south-southwest,2.7,No
2017/07/05,22:30,0.348,0.217,0.356,0.334,0.322,0.175,0.104,southwest,1.4,No
2017/07/05,22:40,0.347,0.215,0.359,0.334,0.321,0.175,0.104,southwest,1.0,No
2017/07/05,22:50,0.349,0.218,0.355,0.331,0.323,0.177,0.104,-,CALM,No
2017/07/05,23:00,0.344,0.217,0.357,0.335,0.321,0.175,0.104,west-northwest,0.7,No
2017/07/05,23:10,0.349,0.217,0.357,0.333,0.322,0.176,0.104,-,CALM,No
2017/07/05,23:20,0.347,0.218,0.355,0.332,0.324,0.176,0.104,north-northwest,0.6,No
2017/07/05,23:30,0.346,0.217,0.358,0.333,0.320,0.175,0.104,north,0.7,No
2017/07/05,23:40,0.350,0.218,0.355,0.332,0.324,0.176,0.104,-,CALM,No
2017/07/05,23:50,0.346,0.218,0.359,0.336,0.323,0.175,0.105,north,0.7,No
